Regional Weather Roundup
Issued by NWS Binghamton, NY

Home | Current Version | Previous Version | Text Only | Print | Product List | Glossary On
Versions: 1 2 3 4 5 6 7 8 9 10 11 12 13 14 15 16 17 18 19 20 21 22 23 24 25 26 27 28 29 30 31 32 33 34 35 36 37 38 39 40 41 42 43 44 45 46 47 48 49 50
000
ASUS41 KBGM 020410
RWRBGM
RWRBGM
BINGHAMTON REGIONAL WEATHER ROUNDUP
NATIONAL WEATHER SERVICE BINGHAMTON NY
1200 AM EDT TUE SEP 02 2014

Note: "fair" indicates few or no clouds below 12,000 feet with no
significant weather and/or obstructions to visibility.

* = Station(s) that does not report precipitation, such as rain,
snow, etc, also no thunder or fog.

!NYZ009-015>018-022>025-036-037-044>046-055>057-062-020500
...CENTRAL NEW YORK...

CITY           SKY/WX    TMP DP  RH WIND       PRES   REMARKS
BINGHAMTON     PTCLDY    71  68  90 S8        29.96F
CORTLAND       FAIR      70  68  94 SW3       29.94F
DANSVILLE      PTCLDY    73  68  84 E9        29.90S
ELMIRA         FOG       66  66 100 CALM      29.93S VSB 1/2
ITHACA         CLEAR     72  68  87 S7        29.94F
HAMILTON       CLEAR     72  66  83 SE5       29.93F
MONTICELLO     PTCLDY    72  70  94 CALM      30.00F
NORWICH        CLEAR     66  66 100 CALM      29.95F FOG
PENN YAN       CLEAR     73  68  84 SW8       29.91S
ROME           CLOUDY    74  69  85 E7        29.90F
SIDNEY         FOG       70  70 100 CALM      29.95F VSB 3/4
SYRACUSE       PTCLDY    77  68  73 S8        29.87F
$$

!PAZ038>040-043-044-047-048-072-020500
...NORTHEAST PENNSYLVANIA...

CITY           SKY/WX    TMP DP  RH WIND       PRES   REMARKS
HAZLETON       PTCLDY    72  70  94 CALM      30.04S
SCRANTON       MOCLDY    74  69  85 CALM      29.97F
TOWANDA*       CLEAR     70  70 100 CALM      29.95S
$$
&&
KEY
WCI = WIND CHILL INDEX
VSB = VISIBILITY
HX  = HEAT INDEX
$$



USA.gov is the U.S. government's official web portal to all federal, state and local government web resources and services.